#timestamp,LO_Frequency,Hit,StdDev 
1558695615.2,286047001.0,N
1558695635.1,286046999.1,N
1558695636.0,286046999.1,N
1558695655.8,286046995.6,N
1558695675.7,286046999.3,N
1558695695.5,286047003.3,N
1558695715.3,286046998.5,N
1558695735.2,286047002.7,N
1558695755.0,286047004.2,N
1558695755.9,286047004.2,N
1558695775.8,286047004.4,N
1558695795.6,286047001.0,N
1558695815.4,286046995.1,N
1558695835.3,286046994.5,N
1558695855.1,286046993.3,N
1558695875.8,286046994.4,N
1558695895.7,286046993.0,N
1558695915.5,286047000.9,N
1558695935.4,286047000.1,N
1558695955.2,286047000.5,N
1558695975.0,286047002.1,N
1558695975.9,286047002.1,N
1558695995.8,286046998.3,N
1558696015.6,286047000.5,N
1558696035.4,286047003.6,N
1558696055.3,286047007.1,N
1558696075.1,286047014.7,Y
1558696095.9,286047011.0,P
1558696115.7,286047002.9,N
1558696135.5,286047001.7,N
1558696155.4,286047004.9,N
1558696175.2,286047000.3,N
1558696195.1,286046994.7,N
1558696196.0,286046994.7,N
1558696215.8,286046997.8,N
1558696235.6,286046995.2,N
1558696255.5,286046995.2,N
1558696275.3,286046993.8,N
1558696295.1,286047001.1,N
1558696315.9,286047001.6,N
1558696335.7,286046999.9,N
1558696355.6,286047000.1,N
1558696375.4,286047001.8,N
1558696395.2,286046998.5,N
1558696415.1,286046994.5,N
1558696416.0,286046994.5,N
1558696435.8,286046987.6,N
1558696455.6,286046991.2,N
1558696475.5,286046988.2,N
1558696495.3,286046992.8,N
1558696515.2,286046995.5,N
1558696535.9,286046993.6,N
1558696555.7,286046991.5,N
1558696575.6,286046991.8,N
1558696595.4,286046994.6,N
1558696615.3,286046996.4,N
1558696635.1,286046994.6,N
1558696636.0,286046994.6,N
1558696655.8,286046993.7,N
1558696675.7,286046987.5,Y
1558696695.5,286046987.0,P
1558696715.3,286046987.1,N
1558696735.2,286046989.2,N
1558696755.0,286046985.1,Y
1558696755.9,286046985.1,P
1558696775.8,286046995.5,N
1558696795.6,286046996.9,N
1558696815.4,286046998.1,N
1558696835.3,286046995.7,N
1558696855.1,286046996.8,N
1558696875.9,286046994.2,N
1558696895.7,286046989.4,N
1558696915.5,286046993.4,N
1558696935.4,286046996.9,N
1558696955.2,286046993.4,N
1558696975.0,286046990.6,N
1558696975.9,286046990.6,N
1558696995.8,286046989.0,Y
1558697015.6,286047001.1,P
1558697035.5,286046996.6,N
1558697055.3,286046996.8,N
1558697075.1,286047005.5,N
1558697095.9,286047002.5,N
1558697115.7,286046993.5,N
1558697135.6,286046993.6,N
1558697155.4,286046995.7,N
1558697175.2,286046999.1,N
1558697195.1,286046992.9,N
1558697196.0,286046992.9,N
1558697215.8,286046995.6,N
1558697235.6,286046993.7,N
1558697255.5,286046994.4,N
1558697275.3,286046993.7,N
1558697295.2,286046995.6,N
1558697315.9,286047000.0,N
1558697335.7,286046999.4,N
1558697355.6,286046995.1,N
1558697375.4,286046995.7,N
1558697395.3,286046988.8,Y
1558697415.1,286046992.7,P
1558697416.0,286046992.7,P
1558697435.8,286046989.6,P
1558697455.7,286046986.2,Y
1558697475.5,286046992.2,P
1558697495.3,286047001.6,P
1558697515.2,286047003.3,N
1558697535.0,286047000.4,N
1558697535.9,286047000.4,N
1558697555.8,286047001.7,N
1558697575.6,286047000.9,N
1558697595.4,286046995.6,N
1558697615.3,286046993.7,N
1558697635.1,286046995.3,N
1558697655.9,286046996.1,N
1558697675.7,286046994.0,N
1558697695.5,286046992.3,N
1558697715.4,286046992.8,N
1558697735.2,286046992.1,N
1558697755.0,286047003.3,N
1558697755.9,286047003.3,N
1558697775.8,286046998.4,N
1558697795.6,286046998.2,N
1558697815.5,286046996.8,N
1558697835.3,286046996.2,N
1558697855.1,286046995.8,N
1558697875.9,286046991.7,N
1558697895.7,286046997.5,N
1558697915.5,286046997.2,N
1558697935.4,286046992.2,N
1558697955.2,286046997.6,N
1558697975.1,286046996.8,N
1558697976.0,286046996.8,N
1558697995.8,286046997.4,N
1558698015.6,286047000.4,N
1558698035.5,286046999.8,N
1558698055.3,286047000.8,N
1558698075.1,286046992.0,N
1558698095.9,286046992.7,N
1558698115.7,286046994.5,N
1558698135.6,286046996.3,N
1558698155.4,286046991.5,N
1558698175.2,286046987.4,Y
1558698195.1,286046993.9,P
1558698196.0,286046993.9,P
1558698215.8,286046992.6,P
1558698235.7,286046996.3,N
1558698255.5,286046997.9,N
1558698275.3,286046995.1,N
1558698295.2,286046998.9,N
1558698315.9,286047002.5,N
1558698335.7,286047003.2,N
1558698355.6,286047001.6,N
1558698375.4,286046993.0,N
1558698395.3,286046989.8,N
1558698415.1,286046993.9,N
1558698416.0,286046993.9,N
1558698435.8,286046993.0,N
1558698455.7,286046990.4,N
1558698475.5,286046990.3,N
1558698495.3,286046999.3,N
1558698515.2,286047000.1,N
1558698535.0,286047002.4,N
1558698535.9,286047002.4,N
1558698555.8,286047001.4,N
1558698575.6,286047003.8,N
1558698595.4,286046996.9,N
1558698615.3,286046994.4,N
1558698635.1,286046996.3,N
1558698655.9,286046984.2,Y
1558698675.7,286046995.5,P
1558698695.5,286046999.1,N
1558698715.4,286046998.0,N
1558698735.2,286046995.2,Y
1558698755.0,286047003.8,P
1558698755.9,286047003.8,N
1558698775.8,286047000.8,N
1558698795.6,286047005.9,N
1558698815.5,286047002.3,N
1558698835.3,286046999.9,N
1558698855.1,286046995.1,N
1558698875.9,286047002.1,N
1558698895.7,286047003.6,N
1558698915.5,286046998.4,N
1558698935.4,286046993.4,N
1558698955.2,286046994.4,N
1558698975.1,286046994.0,N
1558698976.0,286046994.0,N
1558698995.8,286046994.2,N
1558699015.6,286046996.3,N
1558699035.5,286046999.5,N
1558699055.3,286046995.0,N
1558699075.1,286047003.8,N
1558699095.9,286047000.0,N
1558699145.7,286047002.8,E
1558699155.7,286047003.9,N
1558699175.5,286047000.1,P
1558699195.3,286046995.6,N
